Stündliche Wetter Abdulgazino

Heute, 23 Juni, Mittwoch

Zeit Temperatur Niederschläge Wind Luftdruck Luftfeuchtigkeit
00:00 +18°C° 0 mm 2 m/S 713 mmHg 89%
01:00 +18°C° 0 mm 2 m/S 713 mmHg 90%
02:00 +18°C° 0 mm 2 m/S 713 mmHg 90%
03:00 +18°C° 0 mm 2 m/S 712 mmHg 89%
04:00 +18°C° 0 mm 2 m/S 712 mmHg 89%
05:00 +20°C° 0 mm 3 m/S 712 mmHg 83%
06:00 +21°C° 0 mm 3 m/S 712 mmHg 78%
07:00 +23°C° 0 mm 4 m/S 712 mmHg 72%
08:00 +25°C° 0.1 mm 4 m/S 712 mmHg 65%
09:00 +26°C° 0.1 mm 5 m/S 712 mmHg 58%
10:00 +28°C° 0 mm 6 m/S 712 mmHg 48%
11:00 +28°C° 0 mm 6 m/S 712 mmHg 46%
12:00 +29°C° 0 mm 6 m/S 712 mmHg 43%
13:00 +29°C° 0 mm 6 m/S 712 mmHg 41%
14:00 +27°C° 0.3 mm 6 m/S 712 mmHg 49%
15:00 +26°C° 0.3 mm 5 m/S 712 mmHg 58%
16:00 +23°C° 0.3 mm 4 m/S 712 mmHg 67%
17:00 +21°C° 0.8 mm 3 m/S 712 mmHg 76%
18:00 +19°C° 0.8 mm 2 m/S 712 mmHg 85%
19:00 +19°C° 0.8 mm 1 m/S 712 mmHg 94%
20:00 +18°C° 0.8 mm 1 m/S 712 mmHg 95%
21:00 +16°C° 0.8 mm 1 m/S 712 mmHg 95%
22:00 +15°C° 0.8 mm 1 m/S 713 mmHg 96%
23:00 +15°C° 0 mm 1 m/S 713 mmHg 96%

Morgen, 24 Juni, Donnerstag

Zeit Temperatur Niederschläge Wind Luftdruck Luftfeuchtigkeit
00:00 +15°C° 0 mm 1 m/S 713 mmHg 96%
01:00 +15°C° 0 mm 1 m/S 713 mmHg 96%
02:00 +14°C° 0 mm 1 m/S 713 mmHg 96%
03:00 +14°C° 0 mm 1 m/S 713 mmHg 96%
04:00 +14°C° 0 mm 1 m/S 713 mmHg 96%
05:00 +15°C° 0 mm 1 m/S 713 mmHg 92%
06:00 +15°C° 0 mm 1 m/S 713 mmHg 89%
07:00 +16°C° 0 mm 1 m/S 713 mmHg 86%
08:00 +19°C° 0 mm 1 m/S 714 mmHg 75%
09:00 +20°C° 0 mm 1 m/S 714 mmHg 64%
10:00 +22°C° 0 mm 1 m/S 714 mmHg 53%
11:00 +23°C° 0 mm 1 m/S 714 mmHg 48%
12:00 +24°C° 0 mm 1 m/S 714 mmHg 44%
13:00 +25°C° 0 mm 1 m/S 714 mmHg 39%
14:00 +25°C° 0 mm 1 m/S 714 mmHg 39%
15:00 +25°C° 0 mm 1 m/S 714 mmHg 39%
16:00 +26°C° 0 mm 1 m/S 714 mmHg 39%
17:00 +25°C° 0 mm 1 m/S 713 mmHg 45%
18:00 +23°C° 0 mm 2 m/S 713 mmHg 52%
19:00 +21°C° 0 mm 2 m/S 713 mmHg 59%
20:00 +21°C° 0 mm 1 m/S 712 mmHg 63%
21:00 +19°C° 0 mm 1 m/S 712 mmHg 67%
22:00 +16°C° 0 mm 1 m/S 712 mmHg 70%
23:00 +15°C° 0 mm 1 m/S 712 mmHg 73%

übermorgen, 25 Juni, Freitag

Zeit Temperatur Niederschläge Wind Luftdruck Luftfeuchtigkeit
00:00 +15°C° 0 mm 1 m/S 712 mmHg 76%
01:00 +14°C° 0 mm 1 m/S 711 mmHg 78%
02:00 +14°C° 0 mm 1 m/S 711 mmHg 77%
03:00 +14°C° 0 mm 1 m/S 711 mmHg 76%
04:00 +14°C° 0 mm 1 m/S 711 mmHg 74%
05:00 +16°C° 0 mm 1 m/S 711 mmHg 70%
06:00 +19°C° 0 mm 1 m/S 711 mmHg 65%
07:00 +19°C° 0 mm 2 m/S 711 mmHg 61%
08:00 +21°C° 0 mm 2 m/S 711 mmHg 60%
09:00 +23°C° 0 mm 2 m/S 711 mmHg 58%
10:00 +24°C° 0 mm 2 m/S 711 mmHg 57%
11:00 +25°C° 0.1 mm 3 m/S 711 mmHg 57%
12:00 +25°C° 0.1 mm 3 m/S 710 mmHg 57%
13:00 +26°C° 0.1 mm 4 m/S 710 mmHg 57%
14:00 +26°C° 0.3 mm 4 m/S 710 mmHg 60%
15:00 +26°C° 0.3 mm 4 m/S 710 mmHg 64%
16:00 +26°C° 0.3 mm 4 m/S 710 mmHg 67%
17:00 +25°C° 0.5 mm 4 m/S 709 mmHg 73%
18:00 +22°C° 0.5 mm 3 m/S 709 mmHg 80%
19:00 +21°C° 0.5 mm 2 m/S 709 mmHg 87%
20:00 +20°C° 0 mm 2 m/S 709 mmHg 89%
21:00 +19°C° 0 mm 2 m/S 709 mmHg 91%
22:00 +19°C° 0 mm 1 m/S 709 mmHg 94%
23:00 +19°C° 0 mm 1 m/S 709 mmHg 94%

26 Juni, Samstag

Zeit Temperatur Niederschläge Wind Luftdruck Luftfeuchtigkeit
00:00 +18°C° 0 mm 1 m/S 708 mmHg 94%
01:00 +18°C° 0 mm 1 m/S 708 mmHg 94%
02:00 +18°C° 0 mm 1 m/S 708 mmHg 94%
03:00 +18°C° 0 mm 1 m/S 708 mmHg 94%
04:00 +18°C° 0 mm 1 m/S 708 mmHg 94%
05:00 +19°C° 0 mm 1 m/S 708 mmHg 91%
06:00 +21°C° 0 mm 1 m/S 708 mmHg 87%
07:00 +21°C° 0 mm 2 m/S 708 mmHg 84%
08:00 +24°C° 0 mm 2 m/S 708 mmHg 74%
09:00 +26°C° 0 mm 3 m/S 708 mmHg 63%
10:00 +28°C° 0 mm 4 m/S 708 mmHg 53%
11:00 +29°C° 0 mm 4 m/S 708 mmHg 50%
12:00 +30°C° 0 mm 4 m/S 708 mmHg 47%
13:00 +30°C° 0 mm 5 m/S 708 mmHg 43%
14:00 +30°C° 0 mm 5 m/S 708 mmHg 46%
15:00 +29°C° 0 mm 6 m/S 708 mmHg 49%
16:00 +29°C° 0 mm 6 m/S 707 mmHg 52%
17:00 +28°C° 0 mm 6 m/S 707 mmHg 56%
18:00 +26°C° 0 mm 5 m/S 707 mmHg 61%
19:00 +25°C° 0 mm 5 m/S 707 mmHg 66%
20:00 +22°C° 0.1 mm 4 m/S 707 mmHg 75%
21:00 +20°C° 0.1 mm 3 m/S 707 mmHg 84%
22:00 +19°C° 0.1 mm 1 m/S 707 mmHg 93%
23:00 +19°C° 0 mm 1 m/S 707 mmHg 93%

27 Juni, Sonntag

Zeit Temperatur Niederschläge Wind Luftdruck Luftfeuchtigkeit
00:00 +19°C° 0 mm 1 m/S 707 mmHg 94%
01:00 +18°C° 0 mm 1 m/S 707 mmHg 95%
02:00 +18°C° 0 mm 1 m/S 707 mmHg 95%
03:00 +16°C° 0 mm 1 m/S 707 mmHg 95%
04:00 +16°C° 0 mm 1 m/S 707 mmHg 95%
05:00 +19°C° 0 mm 1 m/S 708 mmHg 88%
06:00 +20°C° 0 mm 1 m/S 708 mmHg 82%
07:00 +22°C° 0 mm 1 m/S 708 mmHg 75%
08:00 +24°C° 0 mm 2 m/S 708 mmHg 65%
09:00 +25°C° 0 mm 2 m/S 709 mmHg 56%
10:00 +27°C° 0 mm 3 m/S 709 mmHg 46%
11:00 +28°C° 0 mm 3 m/S 709 mmHg 43%
12:00 +29°C° 0 mm 3 m/S 709 mmHg 40%
13:00 +29°C° 0 mm 3 m/S 708 mmHg 37%
14:00 +29°C° 0 mm 3 m/S 708 mmHg 37%
15:00 +29°C° 0 mm 4 m/S 708 mmHg 37%
16:00 +29°C° 0 mm 4 m/S 708 mmHg 37%
17:00 +28°C° 0 mm 4 m/S 709 mmHg 44%
18:00 +26°C° 0 mm 3 m/S 709 mmHg 51%
19:00 +25°C° 0 mm 3 m/S 709 mmHg 58%
20:00 +23°C° 0 mm 2 m/S 708 mmHg 66%
21:00 +20°C° 0 mm 2 m/S 708 mmHg 74%
22:00 +18°C° 0 mm 1 m/S 708 mmHg 82%
23:00 +18°C° 0 mm 1 m/S 708 mmHg 84%

28 Juni, Montag

Zeit Temperatur Niederschläge Wind Luftdruck Luftfeuchtigkeit
00:00 +18°C° 0 mm 1 m/S 708 mmHg 86%
01:00 +16°C° 0 mm 1 m/S 708 mmHg 88%
02:00 +16°C° 0 mm 1 m/S 708 mmHg 90%
03:00 +16°C° 0 mm 1 m/S 708 mmHg 92%
04:00 +16°C° 0 mm 1 m/S 708 mmHg 94%
05:00 +18°C° 0 mm 1 m/S 709 mmHg 88%
06:00 +20°C° 0 mm 1 m/S 709 mmHg 83%
07:00 +21°C° 0 mm 1 m/S 709 mmHg 77%
08:00 +22°C° 0.3 mm 1 m/S 709 mmHg 75%
09:00 +23°C° 0.3 mm 1 m/S 709 mmHg 73%
10:00 +24°C° 0.3 mm 2 m/S 709 mmHg 71%
11:00 +24°C° 0.3 mm 2 m/S 710 mmHg 69%
12:00 +25°C° 0.3 mm 3 m/S 710 mmHg 66%
13:00 +25°C° 0.3 mm 3 m/S 710 mmHg 64%
14:00 +25°C° 0.1 mm 3 m/S 710 mmHg 61%
15:00 +26°C° 0.1 mm 3 m/S 710 mmHg 59%
16:00 +26°C° 0.1 mm 3 m/S 710 mmHg 56%
17:00 +25°C° 0 mm 3 m/S 710 mmHg 61%
18:00 +22°C° 0 mm 4 m/S 710 mmHg 66%
19:00 +21°C° 0 mm 4 m/S 710 mmHg 71%
20:00 +20°C° 0 mm 4 m/S 710 mmHg 75%
21:00 +19°C° 0 mm 4 m/S 710 mmHg 79%
22:00 +18°C° 0 mm 3 m/S 711 mmHg 83%
23:00 +18°C° 0 mm 3 m/S 711 mmHg 85%
Mehr zeigen

Wir brauchen deine Erlaubnis

Meteoprog und unser Service Anbieter werden persönliche Daten aufbewahren, so wie Cookies, Geräte Bezeichnung oder ähnliche Technologien von deinem Gerät und Prozess, so wie Persönliche Daten Inhalte und Werbungen, genauso wie social Media und den Verkehr zu analysieren.

  • Aufbewahrung und/oder Zugang zu deiner Geräte Informationen.

    Cookies, Geräte Bezeichnung oder andere Informationen, können aufbewahrt oder Zugang zu deinem Gerät erhalten, für den Grund, der oben angegeben wird.

  • Personalisierte Werbung und Inhalte, Messungen, Einblick in das Publikum und Produkt Entwicklung.

    Werbungen und Inhalte können personalisiert werden, basierend auf ein Profil. Mehr Daten können besser personalisierte Werbungen und Inhalte hinzufügen. Werbung und Inhalte können gezeigt und gemessen werden. Einblicke über das Publikum, welche die Werbung gesehen haben und den Inhalt, können abgeleitet werden. So wie Daten können genutzt werden, um es zu verbessern oder die Benutzer Erfahrung zu verbessern das System und die Software.

Wenn du “Ich stimme zu” klickst, erlaubst du uns, die Cookies zu benutzen die Geräte Bezeichnung, den Web oder ähnliche Technologien zu benutzen. Deine Settings, können in deinem Gerät bei deinem Browser geändert werden.

Für den bestimmten Zweck, berechtigten Interessen beruhen darauf, mehr als auf den Inhalt. Du kannst mehr darüber in unseren Privaten und Cookie Politik lesen.